Regional Weather Roundup
Issued by NWS Binghamton, NY

Home | Current Version | Previous Version | Text Only | Print | Product List | Glossary On
Versions: 1 2 3 4 5 6 7 8 9 10 11 12 13 14 15 16 17 18 19 20 21 22 23 24 25 26 27 28 29 30 31 32 33 34 35 36 37 38 39 40 41 42 43 44 45 46 47 48 49 50
000
ASUS41 KBGM 072010
RWRBGM

REGIONAL WEATHER ROUNDUP
NATIONAL WEATHER SERVICE BINGHAMTON NY
300 PM EST WED DEC 07 2016

Note: "fair" indicates few or no clouds below 12,000 feet with no
significant weather and/or obstructions to visibility.

* = Station(s) that does not report precipitation, such as rain,
snow, etc, also no thunder or fog.

NYZ009-015>018-022>025-036-037-044>046-055>057-062-072100
...Central New York...

CITY           SKY/WX    TMP DP  RH WIND       PRES   REMARKS
Binghamton     MOSUNNY   37  26  64 W8        29.92S WCI  31
Cortland       FAIR      41  28  60 W13       29.94S
Dansville      CLOUDY    41  25  53 VRB6      29.99R
Elmira         SUNNY     43  25  49 W6        29.95R
Seneca Falls   MOCLDY    43  34  70 W5        29.98R
Ithaca         MOSUNNY   40  26  57 W7        29.96R
Hamilton       CLOUDY    41  28  60 CALM      29.93S
Monticello     PTSUNNY   37  36  93 W9        29.95R WCI  31
Norwich        MOSUNNY   39  27  60 W5        29.95R
Penn Yan       PTSUNNY   41  24  51 W12       29.96R
Rome           MOSUNNY   39  31  72 W12       29.97R WCI  32
Sidney         CLOUDY    39  30  70 NW6       29.94S WCI  35
Syracuse       PTSUNNY   40  29  64 W8        29.96R WCI  34
$$

PAZ038>040-043-044-047-048-072-072100
...Northeast Pennsylvania...

CITY           SKY/WX    TMP DP  RH WIND       PRES   REMARKS
Hazleton       SUNNY     39  34  81 W6        29.97S WCI  35
Scranton       CLOUDY    41  35  79 SW7       29.96R
$$
&&
KEY
WCI = Wind Chill Index
VSB = Visibility
HX  = Heat Index
$$



USA.gov is the U.S. government's official web portal to all federal, state and local government web resources and services.